FW5316 Weather Reports


Display with metric or nautical units.
time (UTC)temp
F
wind
direction
speed
MPH
gust
MPH
rain 1hr
in
rain 24hr
in
rain mn
in
humidity
%
barometer
mb
20260905224015 95 244 3.0 8.0 0.00 0.00 0.00 24 1012.3
20260905223017 96 250 3.0 9.0 0.00 0.00 0.00 23 1012.5
20260905222018 97 217 4.0 10.0 0.00 0.00 0.00 19 1012.6
20260905221017 98 250 3.0 10.0 0.00 0.00 0.00 18 1012.8
20260905220017 97 251 3.0 10.0 0.00 0.00 0.00 19 1012.8
20260905215017 97 283 4.0 10.0 0.00 0.00 0.00 22 1012.8
20260905214016 96 234 5.0 11.0 0.00 0.00 0.00 20 1012.9
20260905213017 96 245 4.0 11.0 0.00 0.00 0.00 21 1012.9
20260905212017 96 249 4.0 11.0 0.00 0.00 0.00 23 1013.1
20260905211016 95 256 5.0 12.0 0.00 0.00 0.00 26 1013.2
20260905210015 96 250 4.0 12.0 0.00 0.00 0.00 25 1013.1
20260905205017 96 246 4.0 10.0 0.00 0.00 0.00 24 1013.1
20260905204016 97 203 6.0 10.0 0.00 0.00 0.00 23 1013.2
20260905203017 97 240 4.0 14.0 0.00 0.00 0.00 25 1013.4
20260905202016 97 207 6.0 11.0 0.00 0.00 0.00 25 1013.4
20260905201016 97 199 5.0 13.0 0.00 0.00 0.00 23 1013.5
20260905200016 97 219 4.0 11.0 0.00 0.00 0.00 23 1013.5
20260905195016 97 198 6.0 13.0 0.00 0.00 0.00 24 1013.7
20260905194016 97 190 5.0 10.0 0.00 0.00 0.00 24 1013.7
20260905193016 97 177 5.0 10.0 0.00 0.00 0.00 22 1013.8
20260905192016 97 273 3.0 9.0 0.00 0.00 0.00 22 1013.8
20260905191016 97 224 3.0 9.0 0.00 0.00 0.00 23 1013.9
20260905190016 96 313 2.0 10.0 0.00 0.00 0.00 27 1014.1
20260905185016 95 269 3.0 7.0 0.00 0.00 0.00 29 1014.2
20260905184117 94 191 4.0 8.0 0.00 0.00 0.00 28 1014.3
20260905183017 94 263 2.0 8.0 0.00 0.00 0.00 30 1014.3
20260905182017 94 281 3.0 8.0 0.00 0.00 0.00 32 1014.5
20260905181016 92 285 2.0 8.0 0.00 0.00 0.00 34 1014.6
20260905180016 89 289 3.0 7.0 0.00 0.00 0.00 37 1014.6
20260905175016 89 318 1.0 4.0 0.00 0.00 0.00 36 1014.6
20260905174017 90 333 2.0 5.0 0.00 0.00 0.00 36 1014.6
20260905173016 90 297 2.0 6.0 0.00 0.00 0.00 35 1014.5
20260905172017 89 326 2.0 5.0 0.00 0.00 0.00 37 1014.4
20260905171017 88 321 2.0 7.0 0.00 0.00 0.00 37 1014.4
20260905170016 87 325 3.0 6.0 0.00 0.00 0.00 40 1014.3
20260905165016 87 300 2.0 8.0 0.00 0.00 0.00 42 1014.4
20260905164016 86 303 1.0 5.0 0.00 0.00 0.00 44 1014.4
20260905163017 86 314 1.0 4.0 0.00 0.00 0.00 42 1014.3
20260905162037 86 322 1.0 4.0 0.00 0.00 0.00 42 1014.3
20260905161016 84 313 2.0 7.0 0.00 0.00 0.00 43 1014.2
20260905160017 82 353 1.0 4.0 0.00 0.00 0.00 47 1014.2
20260905155018 79 6 1.0 4.0 0.00 0.00 0.00 52 1014.2
20260905154018 78 74 1.0 3.0 0.00 0.00 0.00 53 1014.4
20260905153036 76 0.0 0.0 0.00 0.00 0.00 57 1014.3
20260905152016 74 82 2.0 4.0 0.00 0.00 0.00 61 1014.2
20260905151037 72 81 1.0 3.0 0.00 0.00 0.00 65 1014.1
20260905150016 72 82 3.0 4.0 0.00 0.00 0.00 66 1014.1
20260905145016 71 82 2.0 4.0 0.00 0.00 0.00 69 1014.0
20260905144037 70 71 3.0 5.0 0.00 0.00 0.00 72 1013.9
20260905143016 69 0.0 1.0 0.00 0.00 0.00 75 1013.7
20260905142016 67 40 2.0 3.0 0.00 0.00 0.00 77 1013.8
20260905141016 65 0.0 0.0 0.00 0.00 0.00 81 1013.7
20260905140016 64 10 0.0 1.0 0.00 0.00 0.00 83 1013.6
20260905135016 63 0.0 0.0 0.00 0.00 0.00 83 1013.5
20260905134016 64 0.0 0.0 0.00 0.00 0.00 82 1013.5
20260905133016 64 0.0 0.0 0.00 0.00 0.00 82 1013.3
20260905132016 64 0.0 2.0 0.00 0.00 0.00 83 1013.3
20260905131016 64 0.0 0.0 0.00 0.00 0.00 83 1013.3
20260905130016 64 0.0 0.0 0.00 0.00 0.00 83 1013.3
20260905125016 64 0.0 0.0 0.00 0.00 0.00 83 1013.2
20260905124016 64 0.0 1.0 0.00 0.00 0.00 84 1013.0
20260905123016 64 8 0.0 5.0 0.00 0.00 0.00 85 1012.9
20260905122016 64 360 1.0 5.0 0.00 0.00 0.00 84 1012.9
20260905121056 64 355 0.0 4.0 0.00 0.00 0.00 84 1013.0
20260905120016 64 337 2.0 4.0 0.00 0.00 0.00 84 1013.0
20260905115016 64 0.0 0.0 0.00 0.00 0.00 84 1013.0
20260905114015 64 0.0 1.0 0.00 0.00 0.00 84 1013.1
20260905113016 64 324 2.0 3.0 0.00 0.00 0.00 84 1013.1
20260905112016 64 318 0.0 1.0 0.00 0.00 0.00 84 1013.1
20260905111015 64 317 0.0 2.0 0.00 0.00 0.00 84 1013.1
20260905110016 64 0.0 0.0 0.00 0.00 0.00 84 1013.1
20260905105016 64 0.0 0.0 0.00 0.00 0.00 84 1013.1
20260905104016 64 0.0 0.0 0.00 0.00 0.00 84 1013.2
20260905103015 64 0.0 0.0 0.00 0.00 0.00 84 1013.2
20260905102015 64 0.0 0.0 0.00 0.00 0.00 84 1013.3
20260905101016 65 0.0 0.0 0.00 0.00 0.00 84 1013.3
20260905100036 65 0.0 0.0 0.00 0.00 0.00 84 1013.4
20260905095036 65 0.0 0.0 0.00 0.00 0.00 83 1013.4
20260905094015 65 0.0 0.0 0.00 0.00 0.00 83 1013.4
20260905093020 65 0.0 0.0 0.00 0.00 0.00 83 1013.5
20260905092036 65 0.0 0.0 0.00 0.00 0.00 82 1013.5
20260905091016 66 0.0 0.0 0.00 0.00 0.00 81 1013.6
20260905090056 66 0.0 0.0 0.00 0.00 0.00 82 1013.6
20260905085036 66 0.0 0.0 0.00 0.00 0.00 82 1013.7
20260905084016 66 0.0 0.0 0.00 0.00 0.00 82 1013.8
20260905083015 66 0.0 0.0 0.00 0.00 0.00 82 1013.8
20260905082035 66 0.0 0.0 0.00 0.00 0.00 81 1014.0
20260905081015 66 0.0 0.0 0.00 0.00 0.00 81 1014.2
20260905080015 66 0.0 0.0 0.00 0.00 0.00 82 1014.1
20260905075016 66 0.0 0.0 0.00 0.00 0.00 82 1014.2
20260905074156 66 0.0 0.0 0.00 0.00 0.00 81 1014.4
20260905073015 66 0.0 0.0 0.00 0.00 0.00 81 1014.4
20260905072015 66 0.0 0.0 0.00 0.00 0.00 81 1014.5
20260905071015 66 0.0 0.0 0.00 0.00 0.00 80 1014.4
20260905070015 67 0.0 0.0 0.00 0.00 0.00 80 1014.5
20260905065036 67 0.0 0.0 0.00 0.00 0.00 80 1014.5
20260905064016 67 0.0 0.0 0.00 0.00 0.00 80 1014.4
20260905063036 67 0.0 0.0 0.00 0.00 0.00 80 1014.4
20260905062036 67 0.0 0.0 0.00 0.00 0.00 79 1014.3
20260905061036 67 0.0 0.0 0.00 0.00 0.00 79 1014.4
20260905060036 68 0.0 0.0 0.00 0.00 0.00 79 1014.4
20260905055016 68 0.0 0.0 0.00 0.00 0.00 79 1014.3
20260905054036 68 0.0 0.0 0.00 0.00 0.00 79 1014.2
20260905053016 68 0.0 0.0 0.00 0.00 0.00 79 1014.4
20260905052016 68 0.0 0.0 0.00 0.00 0.00 79 1014.4
20260905051036 68 0.0 0.0 0.00 0.00 0.00 79 1014.3
20260905050016 68 0.0 0.0 0.00 0.00 0.00 78 1014.4
20260905045016 68 0.0 0.0 0.00 0.00 0.00 78 1014.3
20260905044015 69 0.0 0.0 0.00 0.00 0.00 78 1014.1
20260905043016 69 0.0 0.0 0.00 0.00 0.00 78 1014.0
20260905042037 69 0.0 0.0 0.00 0.00 0.00 77 1013.9
20260905041015 69 0.0 0.0 0.00 0.00 0.00 77 1013.8
20260905040018 69 0.0 0.0 0.00 0.00 0.00 77 1013.8
20260905035036 70 0.0 2.0 0.00 0.00 0.00 76 1013.7
20260905034015 70 276 1.0 3.0 0.00 0.00 0.00 76 1013.6
20260905033015 70 275 1.0 4.0 0.00 0.00 0.00 76 1013.4
20260905032015 70 270 1.0 6.0 0.00 0.00 0.00 75 1013.4
20260905031016 71 275 2.0 6.0 0.00 0.00 0.00 75 1013.3
20260905030015 71 288 3.0 9.0 0.00 0.00 0.00 74 1013.1
20260905025036 71 269 2.0 4.0 0.00 0.00 0.00 73 1013.0
20260905024015 72 275 3.0 7.0 0.00 0.00 0.00 73 1013.0
20260905023016 72 276 3.0 9.0 0.00 0.00 0.00 71 1013.0
20260905022018 73 271 2.0 6.0 0.00 0.00 0.00 70 1012.9
20260905021015 73 269 3.0 6.0 0.00 0.00 0.00 70 1012.9
20260905020015 74 270 3.0 8.0 0.00 0.00 0.00 68 1012.9
20260905015036 75 282 3.0 8.0 0.00 0.00 0.00 67 1012.8
20260905014056 76 277 3.0 8.0 0.00 0.00 0.00 65 1012.8
20260905013015 76 311 4.0 9.0 0.00 0.00 0.00 64 1012.6
20260905012036 77 294 5.0 9.0 0.00 0.00 0.00 62 1012.7
20260905011016 78 258 3.0 8.0 0.00 0.00 0.00 61 1012.7
20260905010035 78 252 3.0 7.0 0.00 0.00 0.00 60 1012.7
20260905005035 78 273 3.0 7.0 0.00 0.00 0.00 56 1012.6
20260905004035 78 281 4.0 8.0 0.00 0.00 0.00 54 1012.7
20260905003016 79 280 2.0 7.0 0.00 0.00 0.00 55 1012.7
20260905002015 79 292 4.0 9.0 0.00 0.00 0.00 56 1012.8
20260905001037 79 295 4.0 11.0 0.00 0.00 0.00 56 1012.9
20260905000036 80 309 5.0 9.0 0.00 0.00 0.00 55 1012.9
20260904235015 80 263 4.0 8.0 0.00 0.00 0.00 53 1012.8
20260904234015 81 281 5.0 10.0 0.00 0.00 0.00 52 1012.9
20260904233015 81 276 5.0 10.0 0.00 0.00 0.00 52 1012.9
20260904232016 81 277 5.0 10.0 0.00 0.00 0.00 52 1012.9
20260904231055 82 271 4.0 10.0 0.00 0.00 0.00 52 1013.0
20260904230035 82 261 4.0 10.0 0.00 0.00 0.00 50 1013.1
20260904225036 82 246 2.0 9.0 0.00 0.00 0.00 49 1013.2